Regional Weather Roundup
Issued by NWS Northern Indiana

Home | Current Version | Previous Version | Graphics & Text | Print | Product List | Glossary On
Versions: 1 2 3 4 5 6 7 8 9 10 11 12 13 14 15 16 17 18 19 20 21 22 23 24 25 26 27 28 29 30 31 32 33 34 35 36 37 38 39 40 41 42 43 44 45 46 47 48 49 50
000
ASUS43 KIWX 190810
RWRIWX

KIWX WEATHER ROUNDUP
NATIONAL WEATHER SERVICE NORTHERN INDIANA
400 AM EDT SAT APR 19 2014

NOTE: "FAIR" INDICATES FEW OR NO CLOUDS BELOW 12,000 FEET WITH NO
SIGNIFICANT WEATHER AND/OR OBSTRUCTIONS TO VISIBILITY.

* THESE STATIONS ARE NOT UNDER NWS QUALITY CONTROL. THEY ALSO MAY NOT
  REPORT WEATHER SUCH AS PRECIPITATION OR FOG.

INZ001>027-190900-
NORTHERN INDIANA

CITY           SKY/WX    TMP DP  RH WIND       PRES   REMARKS
GARY*          CLEAR     38  32  78 NE6       30.36S
VALPARAISO     CLEAR     32  26  78 NE3       30.34F
MICHIGAN CITY* CLEAR     30  28  93 CALM      30.35F
LAPORTE*       CLEAR     36  27  68 NE6       30.35S
SOUTH BEND     CLEAR     35  26  69 NE5       30.35S WCI  31
GOSHEN         CLEAR     36  28  73 NE6       30.33S
MONTICELLO*    CLEAR     38  26  64 N7        30.31S
LOGANSPORT*    CLEAR     37  27  65 N7        30.31F
ROCHESTER*     CLEAR     36  28  75 N6        30.32F
WARSAW*        CLEAR     34  28  80 CALM      30.32S
ANGOLA*        CLEAR     39  34  81 NE7       30.33R
FORT WAYNE     CLEAR     39  32  76 N6        30.32R
HUNTINGTON*    FAIR      39  32  77 NE5       30.31R
PERU/GRISSOM   CLEAR     36  31  81 NE6       30.30S
MARION*        CLEAR     40  32  74 NE7       30.31R

$$
INZ028>050-190900-
CENTRAL INDIANA

CITY           SKY/WX    TMP DP  RH WIND       PRES   REMARKS
LAFAYETTE      CLEAR     38  27  64 NE7       30.31R
KOKOMO*        CLEAR     37  30  75 NE5       30.31R
MUNCIE*        CLEAR     41  35  79 NE6       30.28S
INDIANAPOLIS   CLEAR     43  35  73 NE8       30.28S

$$
MIZ043>046-050>051-056>058-064>065-071>073-077>080-190900-
SOUTHWEST LOWER MICHIGAN

CITY           SKY/WX    TMP DP  RH WIND       PRES   REMARKS
BATTLE CREEK   CLEAR     37  30  75 NE7       30.36S
BENTON HARBOR  CLEAR     34  28  79 NE6       30.36S WCI  29
COLDWATER*     CLEAR     38  32  81 NE7       30.34S
HILLSDALE*     CLEAR     39  36  86 E3        30.33S
HOLLAND        CLEAR     37  26  64 NE7       30.39S
GRAND RAPIDS   CLEAR     35  27  72 NE10      30.40R WCI  27
KALAMAZOO      CLEAR     38  29  70 NE5       30.36S
STURGIS*       CLEAR     39  30  70 NE10      30.33S
THREE RIVERS*  FAIR      40  31  71 NE5       30.35S

$$
OHZ001>008-015>018-024>025-190900-
NORTHWEST OHIO

CITY           SKY/WX    TMP DP  RH WIND       PRES   REMARKS
WAUSEON*       FAIR      37  34  87 NE13G18   30.35R
DEFIANCE       CLEAR     42  36  79 NE7       30.34R
FINDLAY        CLEAR     40  36  86 NE18      30.32R
TOLEDO EXPRESS CLEAR     38  31  76 NE10G20   30.35R
TOLEDO METCALF CLEAR     39  33  79 NE12      30.37R
LIMA           CLEAR     45  40  82 NE13      30.29R

$$
&&



USA.gov is the U.S. government's official web portal to all federal, state and local government web resources and services.